Regional Weather Roundup
Issued by NWS

Home | Current Version | Previous Version | Text Only | Print | Product List | Glossary On
Versions: 1 2 3 4 5 6 7 8 9 10 11 12 13 14 15 16 17 18 19 20 21 22 23 24 25 26 27 28 29 30 31 32 33 34 35 36 37 38 39 40 41 42 43 44 45 46 47 48 49 50
000
ASUS43 KDTX 270201
RWRMI
MICHIGAN HOURLY REGIONAL WEATHER ROUNDUP
NATIONAL WEATHER SERVICE DETROIT/PONTIAC MI
1000 PM EDT WED APR 26 2017

NOTE: "FAIR" INDICATES FEW OR NO CLOUDS BELOW 12,000 FEET WITH NO
SIGNIFICANT WEATHER AND/OR OBSTRUCTION TO VISIBILITY.

MIZ047>049-052>055-059>063-066>070-074>076-081>083-270300-
SOUTHEAST LOWER MICHIGAN

CITY           SKY/WX    TMP DP  RH WIND       PRES   REMARKS
ADRIAN         CLOUDY    74  59  59 S13       29.53S
ALMA           MOCLDY    64  58  81 CALM      29.51R
ANN ARBOR      MOCLDY    73  59  61 E5        29.54R
BAD AXE        CLEAR     67  55  66 SE8       29.55R
CARO           PTCLDY    69  56  63 SE10      29.52R
DETROIT CITY   PTCLDY    63  53  70 SE6       29.56R
DETROIT        MOCLDY    68  53  58 E3        29.56R
FLINT          PTCLDY    68  56  65 SE8       29.52R
GROSSE ILE     CLEAR     65  53  65 SE5       29.55R
HILLSDALE      DRIZZLE   70  57  64 S6        29.55R
HOWELL         MOCLDY    71  56  59 SE7       29.52S

CITY           SKY/WX    TMP DP  RH WIND       PRES   REMARKS
JACKSON        CLOUDY    72  58  61 NW7       29.54R
LAMBERTVILLE   PTCLDY    76  57  52 S5        29.55R
LANSING        CLOUDY    69  56  62 CALM      29.53R
LAPEER         FAIR      67  54  61 SE9       29.55S
MASON          CLOUDY    71  58  64 W7        29.54R
MONROE         CLEAR     64  56  76 E10       29.54R
MT. CLEMENS    CLOUDY    60  55  84 E6        29.57R
PONTIAC        PTCLDY    66  54  65 E9        29.54R
PORT HOPE        N/A     65  55  70 S9        29.53R
PORT HURON     PTCLDY    63  52  67 SE9       29.59R
TRI CITIES     PTCLDY    70  59  68 W5        29.51R
MIDLAND        MOCLDY    67  58  71 CALM      29.50S
TROY           PTCLDY    66  51  58 E5        29.58R
SAGINAW HB     CLOUDY    72  54  53 E6        29.52R
$$
MIZ043>046-050>051-056>058-064>065-071>073-077>080-270300-
SOUTHWEST LOWER MICHIGAN

CITY           SKY/WX    TMP DP  RH WIND       PRES   REMARKS
BATTLE CREEK   CLOUDY    70  56  61 E8        29.51F
BENTON HARBOR  CLOUDY    65  54  67 CALM      29.45F
BIG RAPIDS     PTCLDY    65  51  60 S3        29.49S
COLDWATER      RAIN      68  59  72 SW6       29.58R
FREMONT        CLOUDY    63  53  70 SE3       29.47S
HOLLAND        PTCLDY    64  55  72 CALM      29.47F
GRAND RAPIDS   CLOUDY    66  57  72 E6        29.48F
IONIA          FAIR      65  55  68 SE3       29.50S
KALAMAZOO      CLOUDY    70  54  56 E6        29.48F
LUDINGTON      CLOUDY    64  56  77 SW3       29.46R
MARSHALL       CLOUDY    67  57  72 CALM      29.53R
MOUNT PLEASANT PTCLDY    69  52  55 SW3       29.50R
MUSKEGON       CLOUDY    63  54  72 CALM      29.47S
SOUTH HAVEN    CLOUDY    64  55  74 CALM      29.45F
$$
MIZ016>042-270300-
NORTHERN LOWER MICHIGAN

CITY           SKY/WX    TMP DP  RH WIND       PRES   REMARKS
ALPENA         CLOUDY    65  56  72 SE9       29.51R
BEAVER ISLAND  CLOUDY    60  56  87 S5        29.46R
BELLAIRE       CLEAR     59  53  81 CALM      29.48R
CADILLAC       MOCLDY    64  53  68 CALM      29.50S
CHARLEVOIX     CLOUDY    57  52  84 E3        29.50R
FRANKFORT      CLOUDY    65  56  73 SE6       29.47R
GAYLORD        PTCLDY    67  51  56 W6        29.51R
GRAYLING       CLEAR     65  52  62 CALM      29.51R
HARBOR SPRINGS CLEAR     55  54  99 E7        29.49R
HOUGHTON LAKE  MOCLDY    64  54  69 CALM      29.50R
MANISTEE       CLOUDY    66  57  72 VRB5      29.46R
OSCODA         MOCLDY    61  51  70 SE3       29.52R
PELLSTON       CLEAR     53  51  93 CALM      29.50R
ROGERS CITY    CLOUDY    54  48  81 CALM      29.50S
TRAVERSE CITY  CLOUDY    67  55  65 CALM      29.45S
$$
MIZ007>008-015-270300-
EASTERN UPPER MICHIGAN

CITY           SKY/WX    TMP DP  RH WIND       PRES   REMARKS
KINROSS        CLOUDY    51  49  92 E10       29.52R
MACKINAC ISLAN CLEAR     42  42 100 E12       29.51R FOG
NEWBERRY       FOG       50  49  97 SE8       29.47R VSB 1/4
S. S. MARIE    MOCLDY    53  49  86 SE7       29.51R
MUNISING         N/A     40  40 100 NW5       29.46R
$$
MIZ004>006-011>014-085-270300-
CENTRAL UPPER MICHIGAN

CITY           SKY/WX    TMP DP  RH WIND       PRES   REMARKS
MANISTIQUE     FOG       43  42  97 SE5       29.45R VSB 1/4
ESCANABA       CLOUDY    49  48  97 CALM      29.43R FOG
MENOMINEE      CLOUDY    62  56  80 SW9       29.42R
SAWYER-GWINN   FOG       37  37 100 NE6       29.45R VSB 1/2 WCI  33
$$
MIZ001>003-009>011-084-270300-
WESTERN UPPER MICHIGAN

CITY           SKY/WX    TMP DP  RH WIND       PRES   REMARKS
IRON MOUNTAIN  CLOUDY    42  38  85 NW12      29.45R
HOUGHTON       LGT SNOW  32  29  88 N16G23    29.48R FOG     WCI  21
COPPER HARBOR    N/A     34  33  96 NE22      29.47S WCI  22
IRONWOOD       LGT SNOW  29  28  96 NE8       29.57R FOG     WCI  21
$$

ABBREVIATIONS USED IN REMARKS
   TC - TEMPERATURE IN CELSIUS
  WCI - WIND CHILL INDEX
   HX - HEAT INDEX
  VSB - VISIBILITY





USA.gov is the U.S. government's official web portal to all federal, state and local government web resources and services.